User: anonymous   Login
Location: Asheville, NC
(35.6000°N, 82.5500°W)
Time: 08:07:48
(UTC-04:00)
Language:

DELFI C3 - Orbit

View from above orbital plane
View from above orbital plane
View from above satellite
View from above satellite

Ground track
Ground track

The orbit data is extracted from the following two-line orbital elements,

1 32789U 08021G   18198.73959161 +.00000821 +00000-0 +60189-4 0  9997
2 32789 097.5100 252.7733 0012316 185.4680 174.6415 15.06161495556289
Epoch (UTC): 17 July 2018 17:45:00
Eccentricity: 0.0012316
inclination: 97.5100°
perigee height: 539 km
apogee height: 556 km
right ascension of ascending node: 252.7733°
argument of perigee: 185.4680°
revolutions per day: 15.06161495
mean anomaly at epoch: 174.6415°
orbit number at epoch: 55628

The dashed part of the orbit path shows where the satellite is in the earth's shadow,  

DLR